ATLAS 5 CENTAUR DEB, 43956

Orbit data source: Space-Track

ATLAS 5 CENTAUR DEB, 43956 is space debris in HEO originally from a launch on Wed, 17 Sep 2014 UTC launched from the Air Force Eastern Test Range (AFETR). Debris objects in space refer to the collection of defunct objects orbiting the Earth. Examples of debris include non-operational satellites, rocket bodies, and fragments generated from explosions, collisions, or faulty payload assembly.

Loading next visibility...
Identifier
43956, 2014-055K
Orbit
HEO
Country
Flag of USUS
Related business
Flag of USUnited Launch Alliance/Lockheed Martin (US)
Manufacturer
Unknown
Mission
Spacecraft
Bus & Motor
Unknown
Mass
Unknown
Launch date (UTC)
2014-09-17 (11 years ago)
Launch vehicle
Unknown
Launch site
Air Force Eastern Test Range (AFETR)
Object type
Payload
Rocket body
Debris
Shape & HBR
Unknown shape, 1.1 m
Radar Cross Section
Small (<0.1 m²)

Expand to show TLE details & history
Last TLE update: 1 week ago

TLE from 1 week ago
0 ATLAS 5 CENTAUR DEB
1 43956U 14055K   25280.28677683 -.00000060  00000-0  00000+0 0  9992
2 43956  20.7441 126.3993 5069685 198.1796 133.7290  1.92095407 49274
Epoch: 2025-10-07T06:52Z
TLE epoch observation values (Epoch: 2025-10-07T06:52:57.518Z)
Latitude
-0.00004°
Longitude
7.02427°
Altitude
32,778.662 km
Speed
2.404 km/s
True Right ascension
08h 25m 46s
True Declination
0° 00' 00"
Sunlit
Object was in daylight at epoch
Visualization orbit readout
Latitude
Unknown
Longitude
Unknown
Altitude
Unknown
Speed
Unknown
Apparent Right ascension
Unknown
Apparent Declination
Unknown
Sunlit
N/A
Visualization observer readout
Local Sidereal Time
02:09:24
Azimuth
Unknown
Elevation
Unknown
Doppler factor
Unknown
Orbital elements
Apogee altitude
34,818.403 km
Perigee altitude
7,100.043 km
Semi-major axis
27,337.36 km
Eccentricity
0.50697
Inclination
20.7441°
RAAN
126.3993°
Arg. of periapsis
198.1796°
True anomaly
161.84284°
Mean anomaly
133.729°
Eccentric anomaly
148.78341°
Mean motion
0.48018 °/min
Orbital period
749.71 mins
BSTAR
0
Loading maneuver chart data...
Computing Atmospheric mass density...

Documentation

Showing up to 5 results
|